Etusivu
METAR-TAF:

METAR-TAF

Lentoasemat :

Reno, Nevada, Yhdysvallat

Leveyspiiri: 39-40-05N, Pituuspiiri: 119-52-35W, korkeus merenpinnasta: 1539 m

Tämänhetkinen sää

Tämä raportti tehtiin 26 minuuttia sitten, kello 10.35 UTC
tyyntä
Lämpötila -3°C
Kosteus 86%
Ilmanpaine 1026 hPa
Näkyvyys: 16.1 km
selkeää

METAR: KRTS 231035Z AUTO 00000KT 10SM CLR M03/M05 A3031 RMK AO2

Aika: 03:01 (11:01 UTC)


TAF: puuttuu

Säähavainnot ja -ennusteet yli 4000 lentoasemalta (METAR- ja TAF-raportit).

Käytössä olevat sääasemat on merkitty karttaan keltaisilla ja punaisilla pisteillä.

Aseta hiiri pisteen päälle nähdäksesi sääaseman nimen.

Klikkaa sitten nähdäksesi säähavainnot ja -ennusteet.

Kartan vaihtaminen: klikkaa mustalla rastilla varustettuja vihreitä pisteitä, niin voit zoomata sisään; viivalla varustettua vihreää pistettä, niin voit zoomata ulos tai vihreitä nuolia, niin pääset viereisille kartoille.


METAR-TAF: